| time (UTC) | temp F | wind direction | speed knots | gust knots | rain 1hr in | rain 24hr in | rain mn in | humidity % | barometer mb |
| 20260505073114 | 62 | 153 | 2.6 | 6.1 | 0.00 | 0.00 | 0.00 | 58 | 1016.9 |
| 20260505072030 | 61 | 216 | 1.7 | 4.3 | 0.00 | 0.00 | 0.00 | 61 | 1016.9 |
| 20260505071038 | 59 | 121 | 1.7 | 4.3 | 0.00 | 0.00 | 0.00 | 63 | 1016.8 |
| 20260505070031 | 59 | 157 | 2.6 | 6.1 | 0.00 | 0.00 | 0.00 | 63 | 1016.9 |
| 20260505065021 | 58 | 231 | 1.7 | 5.2 | 0.00 | 0.00 | 0.00 | 64 | 1016.9 |
| 20260505064106 | 56 | 220 | 1.7 | 5.2 | 0.00 | 0.00 | 0.00 | 66 | 1016.8 |
| 20260505063058 | 56 | 102 | 1.7 | 5.2 | 0.00 | 0.00 | 0.00 | 66 | 1016.7 |
| 20260505062030 | 54 | 226 | 1.7 | 4.3 | 0.00 | 0.00 | 0.00 | 68 | 1016.7 |
| 20260505061022 | 54 | 135 | 2.6 | 5.2 | 0.00 | 0.00 | 0.00 | 68 | 1016.6 |
| 20260505060045 | 52 | 194 | 1.7 | 5.2 | 0.00 | 0.00 | 0.00 | 70 | 1016.6 |
| 20260505055022 | 51 | 216 | 2.6 | 5.2 | 0.00 | 0.00 | 0.00 | 72 | 1016.4 |
| 20260505054030 | 51 | 200 | 2.6 | 5.2 | 0.00 | 0.00 | 0.00 | 72 | 1016.5 |
| 20260505053038 | 49 | 218 | 2.6 | 6.1 | 0.00 | 0.00 | 0.00 | 74 | 1016.4 |
| 20260505052050 | 48 | 246 | 4.3 | 7.0 | 0.00 | 0.00 | 0.00 | 75 | 1016.3 |
| 20260505051021 | 48 | 229 | 4.3 | 7.0 | 0.00 | 0.00 | 0.00 | 76 | 1016.3 |
| 20260505041038 | 43 | 204 | 4.3 | 7.0 | 0.00 | 0.00 | 0.00 | 79 | 1016.0 |
| 20260505040030 | 43 | 215 | 4.3 | 7.8 | 0.00 | 0.00 | 0.00 | 78 | 1015.9 |
| 20260505035022 | 43 | 231 | 6.1 | 9.6 | 0.00 | 0.00 | 0.00 | 79 | 1015.8 |
| 20260505034030 | 42 | 180 | 2.6 | 7.0 | 0.00 | 0.00 | 0.00 | 83 | 1015.8 |
| 20260505033022 | 42 | 196 | 2.6 | 4.3 | 0.00 | 0.00 | 0.00 | 83 | 1015.9 |
| 20260505032046 | 42 | 116 | 2.6 | 5.2 | 0.00 | 0.00 | 0.00 | 81 | 1015.6 |
| 20260505031022 | 42 | 220 | 3.5 | 7.0 | 0.00 | 0.00 | 0.00 | 81 | 1015.6 |
| 20260505030046 | 41 | 242 | 4.3 | 7.0 | 0.00 | 0.00 | 0.00 | 82 | 1015.5 |
| 20260505025038 | 41 | 220 | 4.3 | 6.1 | 0.00 | 0.00 | 0.00 | 85 | 1015.5 |
| 20260505024050 | 41 | 223 | 5.2 | 7.8 | 0.00 | 0.00 | 0.00 | 86 | 1015.5 |
| 20260505023022 | 41 | 235 | 3.5 | 6.1 | 0.00 | 0.00 | 0.00 | 84 | 1015.4 |
| 20260505022030 | 42 | 223 | 6.1 | 9.6 | 0.00 | 0.00 | 0.00 | 80 | 1015.5 |
| 20260505021023 | 42 | 230 | 5.2 | 8.7 | 0.00 | 0.00 | 0.00 | 82 | 1015.5 |
| 20260505020046 | 41 | 238 | 5.2 | 9.6 | 0.00 | 0.00 | 0.00 | 86 | 1015.5 |
| 20260505015023 | 41 | 240 | 7.0 | 9.6 | 0.00 | 0.00 | 0.00 | 85 | 1015.6 |
| 20260505014047 | 41 | 231 | 5.2 | 7.8 | 0.00 | 0.00 | 0.00 | 86 | 1015.6 |
| 20260505013023 | 42 | 224 | 5.2 | 7.8 | 0.00 | 0.00 | 0.00 | 85 | 1015.6 |
| 20260505012030 | 42 | 211 | 4.3 | 7.8 | 0.00 | 0.00 | 0.00 | 84 | 1015.7 |
| 20260505011034 | 42 | 199 | 2.6 | 6.1 | 0.00 | 0.00 | 0.00 | 82 | 1015.6 |
| 20260505010046 | 42 | 217 | 3.5 | 7.8 | 0.00 | 0.00 | 0.00 | 82 | 1015.7 |
| 20260505005024 | 43 | 232 | 5.2 | 7.8 | 0.00 | 0.00 | 0.00 | 78 | 1015.7 |
| 20260505004047 | 43 | 219 | 7.0 | 11.3 | 0.00 | 0.00 | 0.00 | 78 | 1015.7 |
| 20260505003058 | 43 | 232 | 5.2 | 7.8 | 0.00 | 0.00 | 0.00 | 80 | 1015.7 |
| 20260505002106 | 43 | 229 | 5.2 | 7.8 | 0.00 | 0.00 | 0.00 | 81 | 1015.7 |
| 20260505001058 | 43 | 181 | 2.6 | 5.2 | 0.00 | 0.00 | 0.00 | 79 | 1015.7 |
| 20260505000030 | 42 | 233 | 3.5 | 6.1 | 0.00 | 0.00 | 0.00 | 80 | 1015.8 |
| 20260504235054 | 42 | 228 | 3.5 | 6.1 | 0.00 | 0.00 | 0.00 | 82 | 1015.9 |
| 20260504234030 | 42 | 237 | 3.5 | 7.0 | 0.00 | 0.00 | 0.00 | 82 | 1016.0 |
| 20260504233022 | 43 | 234 | 4.3 | 7.0 | 0.00 | 0.00 | 0.00 | 82 | 1015.9 |
| 20260504232046 | 44 | 83 | 0.9 | 1.7 | 0.00 | 0.00 | 0.00 | 80 | 1016.0 |
| 20260504231058 | 44 | 250 | 1.7 | 2.6 | 0.00 | 0.00 | 0.00 | 76 | 1016.1 |
| 20260504230049 | 44 | 242 | 1.7 | 5.2 | 0.00 | 0.00 | 0.00 | 78 | 1016.2 |
| 20260504225038 | 45 | 224 | 2.6 | 5.2 | 0.00 | 0.00 | 0.00 | 77 | 1016.4 |
| 20260504224030 | 45 | 248 | 1.7 | 2.6 | 0.00 | 0.00 | 0.00 | 81 | 1016.3 |
| 20260504223022 | 46 | 29 | 0.9 | 1.7 | 0.00 | 0.00 | 0.00 | 80 | 1016.4 |
| 20260504222031 | 47 | 99 | 0.9 | 2.6 | 0.00 | 0.00 | 0.00 | 77 | 1016.4 |
| 20260504221022 | 48 | 123 | 1.7 | 1.7 | 0.00 | 0.00 | 0.00 | 74 | 1016.5 |
| 20260504220123 | 48 | 356 | 0.9 | 1.7 | 0.00 | 0.00 | 0.00 | 70 | 1016.6 |
| 20260504215038 | 49 | 315 | 1.7 | 5.2 | 0.00 | 0.00 | 0.00 | 65 | 1016.7 |
| 20260504214048 | 49 | 344 | 5.2 | 7.0 | 0.00 | 0.00 | 0.00 | 65 | 1016.6 |
| 20260504213025 | 49 | 326 | 3.5 | 7.0 | 0.00 | 0.00 | 0.00 | 67 | 1016.6 |
| 20260504212046 | 48 | 353 | 3.5 | 7.8 | 0.00 | 0.00 | 0.00 | 68 | 1016.6 |
| 20260504211039 | 48 | 356 | 2.6 | 5.2 | 0.00 | 0.00 | 0.00 | 67 | 1016.6 |
| 20260504210035 | 48 | 344 | 2.6 | 5.2 | 0.00 | 0.00 | 0.00 | 69 | 1016.4 |
| 20260504205053 | 49 | 339 | 3.5 | 7.0 | 0.00 | 0.00 | 0.00 | 66 | 1016.6 |
| 20260504204047 | 50 | 2 | 0.9 | 1.7 | 0.00 | 0.00 | 0.00 | 62 | 1016.5 |
| 20260504203038 | 50 | 61 | 0.0 | 0.9 | 0.00 | 0.00 | 0.00 | 62 | 1016.5 |
| 20260504202031 | 52 | 92 | 0.0 | 2.6 | 0.00 | 0.00 | 0.00 | 57 | 1016.5 |
| 20260504201034 | 52 | 354 | 0.9 | 1.7 | 0.00 | 0.00 | 0.00 | 56 | 1016.6 |
| 20260504200104 | 52 | 346 | 0.9 | 2.6 | 0.00 | 0.00 | 0.00 | 54 | 1016.5 |
| 20260504195035 | 52 | 336 | 0.9 | 1.7 | 0.00 | 0.00 | 0.00 | 55 | 1016.5 |
| 20260504194107 | 52 | 7 | 0.9 | 1.7 | 0.00 | 0.00 | 0.00 | 55 | 1016.6 |
| 20260504193048 | 53 | 348 | 1.7 | 4.3 | 0.00 | 0.00 | 0.00 | 56 | 1016.6 |
| 20260504192103 | 52 | 260 | 0.9 | 1.7 | 0.00 | 0.00 | 0.00 | 57 | 1016.7 |
| 20260504191025 | 53 | 273 | 0.9 | 4.3 | 0.00 | 0.00 | 0.00 | 58 | 1016.6 |
| 20260504190050 | 53 | 277 | 1.7 | 4.3 | 0.00 | 0.00 | 0.00 | 59 | 1016.6 |
| 20260504185022 | 53 | 341 | 0.9 | 1.7 | 0.00 | 0.00 | 0.00 | 56 | 1016.6 |
| 20260504184046 | 54 | 42 | 0.0 | 0.9 | 0.00 | 0.00 | 0.00 | 55 | 1016.5 |
| 20260504183023 | 54 | 71 | 0.9 | 1.7 | 0.00 | 0.00 | 0.00 | 54 | 1016.5 |
| 20260504182031 | 54 | 336 | 0.9 | 1.7 | 0.00 | 0.00 | 0.00 | 54 | 1016.5 |
| 20260504181039 | 54 | 70 | 0.9 | 1.7 | 0.00 | 0.00 | 0.00 | 52 | 1016.5 |
| 20260504180046 | 54 | 40 | 0.9 | 1.7 | 0.00 | 0.00 | 0.00 | 52 | 1016.4 |
| 20260504175023 | 54 | 40 | 0.0 | 0.9 | 0.00 | 0.00 | 0.00 | 53 | 1016.4 |
| 20260504174032 | 54 | 44 | 0.9 | 0.9 | 0.00 | 0.00 | 0.00 | 55 | 1016.3 |
| 20260504173039 | 55 | 39 | 0.0 | 0.9 | 0.00 | 0.00 | 0.00 | 56 | 1016.3 |
| 20260504172030 | 55 | 43 | 0.0 | 0.9 | 0.00 | 0.00 | 0.00 | 54 | 1016.2 |
| 20260504171039 | 56 | 142 | 1.7 | 2.6 | 0.00 | 0.00 | 0.00 | 52 | 1016.1 |
| 20260504151038 | 58 | 50 | 5.2 | 12.2 | 0.00 | 0.00 | 0.00 | 50 | 1015.3 |
| 20260504141022 | 59 | 60 | 4.3 | 7.8 | 0.00 | 0.00 | 0.00 | 49 | 1015.1 |
| 20260504110535 | 63 | 355 | 7.0 | 14.8 | 0.00 | 0.00 | 0.00 | 43 | 1015.3 |
| 20260504100535 | 63 | 4 | 7.0 | 12.2 | 0.00 | 0.00 | 0.00 | 41 | 1015.6 |
| 20260504081527 | 60 | 354 | 8.7 | 15.6 | 0.00 | 0.00 | 0.00 | 47 | 1015.6 |
| 20260504080559 | 60 | 337 | 9.6 | 15.6 | 0.00 | 0.00 | 0.00 | 47 | 1015.8 |